User: anonymous   Login
Location: Darlington Observatory
(36.4817°N, 105.8156°W)
Time: 09:07:59
(UTC-06:00)
Language:

NOSS 3-3 (A) - Orbit

View from above orbital plane
View from above orbital plane
View from above satellite
View from above satellite

Ground track
Ground track

The orbit data is extracted from the following two-line orbital elements,

1 28537U 05004A   16147.90301728 0.00000000  00000-0  00000-0 0    06
2 28537  63.4284  92.7673 0233000 358.2147   1.7853 13.40707885    03
Epoch (UTC): 26 May 2016 21:40:20
Eccentricity: 0.0233000
inclination: 63.4284°
perigee height: 932 km
apogee height: 1281 km
right ascension of ascending node: 92.7673°
argument of perigee: 358.2147°
revolutions per day: 13.40707885
mean anomaly at epoch: 1.7853°
orbit number at epoch: 0

The dashed part of the orbit path shows where the satellite is in the earth's shadow,  

DLR